Location: Unspecified
(0.0000°N, 0.0000°E)
Time: 17:35:11
(UTC+00:00)

Vanguard 2 - Pass Details

Date: 21 April 2026
Orbit: 553 x 2895 km, 32.9° (Epoch: 17 May)

Event Time Altitude Azimuth Distance (km) Brightness Sun altitude
Exits shadow 04:00:32 19° 208° (SSW) 4,551 11.0 -28.9°
Maximum altitude 04:10:29 39° 154° (SSE) 2,902 10.4 -26.5°
Drops below altitude 10° 04:20:02 10° 88° (E) 3,765 12.1 -24.1°
Sets 04:22:52 0° 80° (E) 4,452 12.9 -23.4°
